CW8947 Weather Reports


time (UTC)temp
C
wind
direction
speed
KPH
gust
KPH
rain 1hr
cm
rain 24hr
cm
rain mn
cm
humidity
%
barometer
mb
20260505152625 14 255 6.4 16.1 0.00 0.00 0.00 51 1008.3
20260505151621 15 176 6.4 14.5 0.00 0.00 0.00 49 1008.2
20260505150613 14 182 1.6 9.7 0.00 0.00 0.00 51 1008.2
20260505140625 13 112 0.0 3.2 0.00 0.00 0.00 58 1007.9
20260505124621 13 117 0.0 4.8 0.00 0.00 0.00 56 1007.4
20260505123616 13 117 0.0 4.8 0.00 0.00 0.00 56 1007.3
20260505122628 13 119 1.6 3.2 0.00 0.00 0.00 55 1007.1
20260505121619 13 119 0.0 3.2 0.00 0.00 0.00 56 1007.2
20260505120627 13 119 0.0 3.2 0.00 0.00 0.00 56 1007.1
20260505115613 13 119 1.6 4.8 0.00 0.00 0.00 55 1007.0
20260505114625 13 128 3.2 6.4 0.00 0.00 0.00 55 1007.0
20260505113618 14 153 0.0 4.8 0.00 0.00 0.00 54 1006.8
20260505112615 14 153 1.6 8.0 0.00 0.00 0.00 52 1006.8
20260505111628 15 175 1.6 3.2 0.00 0.00 0.00 51 1006.9
20260505110641 15 175 0.0 4.8 0.00 0.00 0.00 50 1006.9
20260505101612 15 194 1.6 6.4 0.00 0.00 0.00 50 1006.9
20260505100623 15 181 3.2 6.4 0.00 0.00 0.00 51 1006.9
20260505095628 15 181 3.2 8.0 0.00 0.00 0.00 51 1007.0
20260505094621 15 151 3.2 9.7 0.00 0.00 0.00 51 1007.0
20260505093615 15 190 4.8 11.3 0.00 0.00 0.00 50 1007.1
20260505092625 15 227 4.8 14.5 0.00 0.00 0.00 50 1007.0
20260505091614 15 247 3.2 12.9 0.00 0.00 0.00 50 1007.1
20260505090622 15 205 6.4 14.5 0.00 0.00 0.00 50 1007.1
20260505085644 15 181 6.4 12.9 0.00 0.00 0.00 49 1007.1
20260505084635 15 181 4.8 14.5 0.00 0.00 0.00 49 1007.0
20260505083623 15 161 6.4 14.5 0.00 0.00 0.00 49 1007.1
20260505082618 15 177 4.8 11.3 0.00 0.00 0.00 49 1007.1
20260505081630 15 201 6.4 16.1 0.00 0.00 0.00 50 1007.3
20260505080621 15 182 8.0 16.1 0.00 0.00 0.00 51 1007.3
20260505075628 15 206 6.4 16.1 0.00 0.00 0.00 52 1007.5
20260505074620 15 159 8.0 17.7 0.00 0.00 0.00 52 1007.6
20260505073631 15 186 8.0 16.1 0.00 0.00 0.00 52 1007.8
20260505072643 15 169 6.4 12.9 0.00 0.00 0.00 53 1007.9
20260505071620 16 173 6.4 14.5 0.00 0.00 0.00 53 1007.9
20260505070631 16 157 9.7 16.1 0.00 0.00 0.00 53 1007.9
20260505065614 16 165 6.4 12.9 0.00 0.00 0.00 53 1008.0
20260505064628 16 200 4.8 19.3 0.00 0.00 0.00 53 1008.0
20260505063623 16 150 11.3 27.4 0.00 0.00 0.00 52 1007.9
20260505062616 16 169 12.9 30.6 0.00 0.00 0.00 50 1007.8
20260505061626 17 209 11.3 17.7 0.00 0.00 0.00 47 1007.7
20260505060626 17 249 8.0 14.5 0.00 0.00 0.00 45 1007.5
20260505055648 17 247 6.4 11.3 0.00 0.00 0.00 44 1007.3
20260505054643 17 252 4.8 8.0 0.00 0.00 0.00 42 1007.1
20260505053614 17 197 1.6 6.4 0.00 0.00 0.00 41 1006.8
20260505052625 17 202 3.2 8.0 0.00 0.00 0.00 41 1006.8
20260505051619 18 190 4.8 12.9 0.00 0.00 0.00 40 1006.7
20260505050630 18 184 4.8 16.1 0.00 0.00 0.00 39 1006.6
20260505041628 18 202 4.8 9.7 0.00 0.00 0.00 35 1005.9
20260505040621 18 167 4.8 9.7 0.00 0.00 0.00 36 1005.7
20260505035631 18 234 1.6 6.4 0.00 0.00 0.00 37 1005.6
20260505034625 18 96 3.2 6.4 0.00 0.00 0.00 36 1005.4
20260505033635 19 96 3.2 9.7 0.00 0.00 0.00 35 1005.3
20260505032626 20 93 3.2 4.8 0.00 0.00 0.00 33 1005.1
20260505031642 20 202 0.0 4.8 0.00 0.00 0.00 32 1004.9
20260505030651 20 202 3.2 6.4 0.00 0.00 0.00 31 1004.8
20260505025612 20 202 3.2 11.3 0.00 0.00 0.00 31 1004.8
20260505024625 20 225 3.2 8.0 0.00 0.00 0.00 30 1004.7
20260505023620 21 207 4.8 9.7 0.00 0.00 0.00 30 1004.6
20260505022613 21 209 6.4 9.7 0.00 0.00 0.00 29 1004.5
20260505021624 21 202 3.2 8.0 0.00 0.00 0.00 28 1004.3
20260505020614 21 225 3.2 12.9 0.00 0.00 0.00 27 1004.3
20260505015635 22 217 8.0 12.9 0.00 0.00 0.00 27 1004.2
20260505014628 22 209 4.8 11.3 0.00 0.00 0.00 26 1004.2
20260505013618 22 224 6.4 14.5 0.00 0.00 0.00 26 1004.2
20260505012629 22 266 8.0 14.5 0.00 0.00 0.00 26 1004.2
20260505011623 22 208 4.8 12.9 0.00 0.00 0.00 26 1004.3
20260505010615 22 186 8.0 19.3 0.00 0.00 0.00 26 1004.3
20260505005617 22 174 6.4 16.1 0.00 0.00 0.00 26 1004.4
20260505004630 23 236 8.0 19.3 0.00 0.00 0.00 26 1004.3
20260505003625 23 198 9.7 17.7 0.00 0.00 0.00 24 1004.5
20260505002616 23 209 6.4 20.9 0.00 0.00 0.00 24 1004.6
20260505001627 23 262 11.3 20.9 0.00 0.00 0.00 23 1004.6
20260505000617 23 244 14.5 24.1 0.00 0.00 0.00 24 1004.6
20260504235621 23 266 16.1 22.5 0.00 0.00 0.00 24 1004.6
20260504234630 23 263 16.1 24.1 0.00 0.00 0.00 24 1004.6
20260504233639 23 244 12.9 24.1 0.00 0.00 0.00 25 1004.7
20260504232627 23 234 17.7 25.7 0.00 0.00 0.00 26 1004.7
20260504231619 23 259 19.3 30.6 0.00 0.00 0.00 25 1004.7
20260504230630 23 258 17.7 27.4 0.00 0.00 0.00 25 1004.7
20260504225613 23 246 19.3 29.0 0.00 0.00 0.00 26 1004.7
20260504224624 25 254 12.9 20.9 0.00 0.00 0.00 19 1004.7
20260504223619 24 284 8.0 22.5 0.00 0.00 0.00 19 1004.7
20260504222649 24 271 8.0 19.3 0.00 0.00 0.00 19 1004.7
20260504221620 24 204 9.7 19.3 0.00 0.00 0.00 19 1004.7
20260504220631 25 254 8.0 16.1 0.00 0.00 0.00 20 1004.8
20260504215619 24 252 11.3 20.9 0.00 0.00 0.00 19 1005.0
20260504214630 24 319 11.3 17.7 0.00 0.00 0.00 20 1005.2
20260504213617 24 268 6.4 17.7 0.00 0.00 0.00 20 1005.4
20260504212629 24 287 6.4 11.3 0.00 0.00 0.00 19 1005.6
20260504211621 23 153 3.2 16.1 0.00 0.00 0.00 20 1005.6
20260504210629 23 256 9.7 19.3 0.00 0.00 0.00 19 1005.8
20260504205629 23 246 6.4 14.5 0.00 0.00 0.00 21 1005.9
20260504204618 24 238 11.3 20.9 0.00 0.00 0.00 21 1006.0
20260504203630 23 309 3.2 16.1 0.00 0.00 0.00 22 1006.1
20260504202620 23 198 6.4 12.9 0.00 0.00 0.00 23 1006.1
20260504201631 23 248 11.3 17.7 0.00 0.00 0.00 23 1006.3
20260504200626 23 319 8.0 14.5 0.00 0.00 0.00 24 1006.3
20260504195627 23 257 11.3 22.5 0.00 0.00 0.00 23 1006.5
20260504194616 23 249 9.7 19.3 0.00 0.00 0.00 23 1006.5
20260504193645 23 206 1.6 11.3 0.00 0.00 0.00 25 1006.7
20260504192616 23 280 11.3 19.3 0.00 0.00 0.00 25 1006.8
20260504191626 23 250 9.7 17.7 0.00 0.00 0.00 25 1006.9
20260504190617 23 287 4.8 11.3 0.00 0.00 0.00 26 1007.0
20260504185618 22 269 1.6 17.7 0.00 0.00 0.00 28 1007.2
20260504184631 22 257 12.9 17.7 0.00 0.00 0.00 27 1007.2
20260504183620 22 255 9.7 14.5 0.00 0.00 0.00 27 1007.3
20260504182629 22 312 1.6 11.3 0.00 0.00 0.00 27 1007.6
20260504181618 22 236 9.7 16.1 0.00 0.00 0.00 27 1007.7
20260504180634 22 230 8.0 14.5 0.00 0.00 0.00 27 1007.8
20260504175615 22 63 3.2 6.4 0.00 0.00 0.00 27 1008.0
20260504174623 21 215 1.6 11.3 0.00 0.00 0.00 28 1008.0
20260504173631 21 250 4.8 14.5 0.00 0.00 0.00 28 1008.0
20260504172617 21 238 6.4 12.9 0.00 0.00 0.00 29 1008.1
20260504171628 21 272 9.7 14.5 0.00 0.00 0.00 29 1008.2
20260504170615 21 182 6.4 16.1 0.00 0.00 0.00 29 1008.2